Spokane, WA

11:29 PM PST on December 09, 2019 (GMT -0800)
Spokane International

Weather History for KGEG - August, 2019

Change the Weather History Date:

Monday, August 26, 2019

  Actual Average Record
Temperature  
Mean Temperature 68 °F 67 °F  
Max Temperature 79 °F 80 °F 96 °F (1922)
Min Temperature 56 °F 54 °F 39 °F (1993)
Degree Days  
Heating Degree Days 0 2  
Month to date heating degree days 3 23  
Since 1 June heating degree days 107 191  
Since 1 July heating degree days 11 55  
Cooling Degree Days 3 4  
Month to date cooling degree days 198 151  
Year to date cooling degree days 451 394  
Since 1 June cooling degree days 437 380  
Growing Degree Days 17 (Base 50)    
Moisture  
Dew Point 36 °F    
Average Humidity 35    
Maximum Humidity 51    
Minimum Humidity 19    
Precipitation  
Precipitation 0.00 in 0.02 in 0.83 in (1903)
Month to date precipitation 0.46 0.48  
Year to date precipitation 9.10 10.00  
Snow  
Snow 0.00 in 0.00 in 0.00 in (2002)
Month to date snowfall 0.0 0.0  
Since 1 June snowfall 0.0 0.0  
Since 1 July snowfall 0.0 0.0  
Snow Depth 0.00 in    
Sea Level Pressure  
Sea Level Pressure 30.12 in    
Wind  
Wind Speed 4 mph (NW)    
Max Wind Speed 13 mph    
Max Gust Speed 17 mph    
Visibility 10 miles    
Events      
T = Trace of Precipitation, MM = Missing Value Source: NWS Daily Summary

Daily Weather History Graph

Daily Weather History Graph

Search for Another Location

Airport or City:

Astronomy

Aug. 26, 2019 Rise Set
Actual Time 6:00 AM PDT 7:42 PM PDT
Civil Twilight 5:27 AM PDT 8:14 PM PDT
Nautical Twilight 4:48 AM PDT 8:54 PM PDT
Astronomical Twilight 4:04 AM PDT 9:37 PM PDT
Moon 1:14 AM PDT (8/26) 5:26 PM PDT (8/26)
Length of Visible Light 14h 47m
Length of Day
13h 42m
Waning Crescent, 18% of the Moon is Illuminated
Aug 26
Waning Crescent
Aug 30
New
Sep 5
First Quarter
Sep 13
Full
Sep 21
Last Quarter

Hourly Weather History & Observations

Time (PDT) Temp. Dew Point Humidity Pressure Visibility Wind Dir Wind Speed Gust Speed Precip Events Conditions
12:53 AM 63.0 °F 37.9 °F 40% 30.07 in 10.0 mi NNW 8.1 mph - N/A   Partly Cloudy
1:53 AM 61.0 °F 37.9 °F 42% 30.08 in 10.0 mi Calm Calm - N/A   Partly Cloudy
2:53 AM 57.0 °F 37.9 °F 49% 30.09 in 10.0 mi NNW 4.6 mph - N/A   Partly Cloudy
3:53 AM 59.0 °F 39.0 °F 48% 30.09 in 10.0 mi NNW 4.6 mph - N/A   Scattered Clouds
4:53 AM 55.9 °F 37.9 °F 51% 30.10 in 10.0 mi West 3.5 mph - N/A   Mostly Cloudy
5:53 AM 57.0 °F 39.0 °F 51% 30.12 in 10.0 mi SW 3.5 mph - N/A   Mostly Cloudy
6:53 AM 57.9 °F 39.0 °F 49% 30.14 in 10.0 mi NNW 3.5 mph - N/A   Mostly Cloudy
7:53 AM 62.1 °F 41.0 °F 46% 30.16 in 10.0 mi Calm Calm - N/A   Partly Cloudy
8:53 AM 66.0 °F 41.0 °F 40% 30.17 in 10.0 mi North 5.8 mph - N/A   Partly Cloudy
9:53 AM 68.0 °F 37.9 °F 33% 30.17 in 10.0 mi NE 6.9 mph - N/A   Clear
10:53 AM 71.1 °F 34.0 °F 26% 30.16 in 10.0 mi Variable 3.5 mph - N/A   Partly Cloudy
11:53 AM 73.0 °F 35.1 °F 25% 30.16 in 10.0 mi North 8.1 mph - N/A   Partly Cloudy
12:53 PM 75.0 °F 32.0 °F 21% 30.14 in 10.0 mi Calm Calm - N/A   Partly Cloudy
1:53 PM 75.0 °F 30.9 °F 20% 30.14 in 10.0 mi West 10.4 mph 16.1 mph N/A   Partly Cloudy
2:53 PM 77.0 °F 32.0 °F 19% 30.12 in 10.0 mi NNW 8.1 mph - N/A   Partly Cloudy
3:53 PM 77.0 °F 33.1 °F 20% 30.11 in 10.0 mi Calm Calm - N/A   Partly Cloudy
4:53 PM 78.1 °F 33.1 °F 19% 30.10 in 10.0 mi WNW 9.2 mph - N/A   Partly Cloudy
5:53 PM 78.1 °F 35.1 °F 21% 30.10 in 10.0 mi West 9.2 mph - N/A   Partly Cloudy
6:53 PM 77.0 °F 34.0 °F 21% 30.10 in 10.0 mi NW 5.8 mph - N/A   Partly Cloudy
7:53 PM 73.9 °F 35.1 °F 24% 30.11 in 10.0 mi WNW 6.9 mph - N/A   Partly Cloudy
8:53 PM 71.1 °F 35.1 °F 27% 30.12 in 10.0 mi Calm Calm - N/A   Clear
9:53 PM 64.9 °F 35.1 °F 33% 30.12 in 10.0 mi WSW 4.6 mph - N/A   Clear
10:53 PM 64.0 °F 36.0 °F 35% 30.12 in 10.0 mi Calm Calm - N/A   Clear
11:53 PM 63.0 °F 36.0 °F 37% 30.13 in 10.0 mi Calm Calm - N/A   Clear